Tracking 27111 objects as of 28-Mar-2023
HD Live streaming from Space Station
objects crossing your sky now

IUS R/B(1)

Track IUS R/B(1) now!
10-day predictions


NORAD ID: 13971
Int'l Code: 1983-026D
Perigee: 252.5 km
Apogee: 20,421.9 km
Inclination: 25.9 °
Period: 358.2 minutes
Semi major axis: 16708 km
RCS: 12.7154 m2 (large)
Launch date: April 4, 1983
Source: United States (US)
Launch site: AIR FORCE EASTERN TEST RANGE (AFETR)

Note: This is a ROCKET BODY
Your satellite tracking list
Your tracking list is empty




NASA's NSSDC Master Catalog

Two Line Element Set (TLE):
1 13971U 83026D   23086.28860385  .00020918  00000-0  21287-2 0  9991
2 13971  25.8986  49.0671 6035772 313.5547   9.9729  4.01984087458897
Source of the keplerian elements: AFSPC